カタログに戻る

STARLINK-38084

運用中通信SSO
NORAD 69995·PAYLOAD·🇺🇸 United States

打ち上げ Jul 11, 2026 から Vandenberg Space Force Base

Loading…

次のパス (今後24時間)

TLE

最新Source: CelesTrak SupGP

元期: Sep 15, 2026, 03:23 UTC

1 69995C 26159W   26258.14145833 -.01906100  00000+0 -34583-1 0  2583
2 69995  97.2850  99.8707 0001644 101.8954 311.8727 15.50598768    18

AllMySatでSTARLINK-38084をリアルタイム追跡

Download on the App Store